Location: Bemmer
(51.5498°N, 5.6249°E)
Time: 14:04:32
(UTC+00:00)

Cosmos 1500 - Pass Details

Date: 03 March 2021
Orbit: 499 x 517 km, 82.5° (Epoch: 11 April)

Event Time Altitude Azimuth Distance (km) Brightness Sun altitude
Rises 18:48:00 0° 187° (S) 2,582 6.8 -14.2°
Reaches altitude 10° 18:50:06 10° 186° (S) 1,702 5.8 -14.5°
Maximum altitude 18:53:50 83° 100° (E) 511 3.0 -15.1°
Drops below altitude 10° 18:57:36 10° 12° (NNE) 1,718 5.8 -15.7°
Sets 18:59:43 0° 12° (NNE) 2,609 6.8 -16.0°
